Regional Weather Roundup
Issued by NWS Memphis, TN

Home | Current Version | Previous Version | Text Only | Print | Product List | Glossary On
Versions: 1 2 3 4 5 6 7 8 9 10 11 12 13 14 15 16 17 18 19 20 21 22 23 24 25 26 27 28 29 30 31 32 33 34 35 36 37 38 39 40 41 42 43 44 45 46 47 48 49 50
000
ASUS44 KMEG 230500
RWRMEG
MEMPHIS CWA HOURLY WEATHER ROUNDUP
NATIONAL WEATHER SERVICE MEMPHIS TN
1200 AM CDT WED JUL 23 2014

...WEST TENNESSEE...

CITY           SKY/WX    TMP DP  RH WIND       PRES   REMARKS
MEMPHIS INTL   PTCLDY    80  70  71 CALM      30.08R
NWS MEMPHIS      N/A     74 N/A N/A MISG        N/A
JACKSON        CLEAR     73  71  93 CALM      30.08R FOG
DYERSBURG      CLEAR     73  64  73 CALM      30.08S


...EASTERN ARKANSAS...

CITY           SKY/WX    TMP DP  RH WIND       PRES   REMARKS
JONESBORO      CLEAR     71  69  93 CALM      30.07R
WEST MEMPHIS   CLEAR     75  73  93 CALM      30.06S
BATESVILLE     CLEAR     73  70  88 S3        30.07S
WALNUT RIDGE   CLEAR     73  59  60 S6        30.06S
BLYTHEVILLE    CLEAR     76  71  85 CALM      30.07S
STUTTGART      CLEAR     77  70  78 SE5       30.08S
PINE BLUFF     CLEAR     73  71  93 CALM      30.07S
MONTICELLO     CLEAR     73  71  93 CALM      30.07R


...NORTH MISSISSIPPI...

CITY           SKY/WX    TMP DP  RH WIND       PRES   REMARKS
TUPELO         PTCLDY    76  73  91 CALM      30.08S
OLIVE BRANCH   CLEAR     77  77 100 CALM      30.08R
CLARKSDALE     CLEAR     73  73 100 CALM      30.08S
GREENWOOD      LGT RAIN  74  72  93 CALM      30.06F
STARKVILLE     FAIR      72  72 100 CALM      30.08R FOG
GOLDEN TRIANGL CLOUDY    79  72  78 CALM      30.08S


...SOUTHEAST MISSOURI...

CITY           SKY/WX    TMP DP  RH WIND       PRES   REMARKS
WEST PLAINS    CLEAR     75  69  81 S3        30.11R
POPLAR BLUFF   CLEAR     70  66  87 CALM      30.05S FOG
CAPE GIRARDEAU PTCLDY    70  67  90 SW5       30.04F FOG


...NORTHWEST ALABAMA...

CITY           SKY/WX    TMP DP  RH WIND       PRES   REMARKS
MUSCLE SHOALS  MOCLDY    75  72  90 CALM      30.09F


...MIDDLE TENNESSEE...

CITY           SKY/WX    TMP DP  RH WIND       PRES   REMARKS
NASHVILLE      MOCLDY    77  72  84 CALM      30.08S
CLARKSVILLE    CLOUDY    77  73  87 CALM      30.07S


...WESTERN KENTUCKY...

CITY           SKY/WX    TMP DP  RH WIND       PRES   REMARKS
PADUCAH        CLEAR     73  70  90 CALM      30.05F FOG
FORT CAMPBELL  CLEAR     78  75  90 SW5       30.07S


...CENTRAL ARKANSAS...

CITY           SKY/WX    TMP DP  RH WIND       PRES   REMARKS
LITTLE ROCK    PTCLDY    76  70  82 CALM      30.08R


SKY/WX REPORTED AS FAIR MEANS FEW OR NO CLOUDS BELOW
12 THOUSAND FEET.




USA.gov is the U.S. government's official web portal to all federal, state and local government web resources and services.